TimeEDT,TemperatureF,Dew PointF,Humidity,Sea Level PressureIn,VisibilityMPH,Wind Direction,Wind SpeedMPH,Gust SpeedMPH,PrecipitationIn,Events,Conditions,WindDirDegrees,DateUTC
12:22 AM,32.0,32.0,100,29.75,5.0,South,6.9,-,0.00,,Overcast,180,2013-03-10 05:22:00
12:53 AM,32.0,32.0,100,29.79,5.0,South,8.1,-,0.00,,Overcast,190,2013-03-10 05:53:00
1:53 AM,32.0,32.0,100,29.77,3.0,South,4.6,-,0.03,Snow,Light Snow,190,2013-03-10 06:53:00
3:14 AM,32.0,32.0,100,29.74,4.0,SSW,4.6,-,0.00,,Overcast,200,2013-03-10 07:14:00
3:53 AM,33.1,32.0,96,29.77,6.0,SW,4.6,-,0.00,,Overcast,220,2013-03-10 07:53:00
4:09 AM,33.8,32.0,93,29.72,7.0,SW,3.5,-,N/A,,Overcast,220,2013-03-10 08:09:00
4:53 AM,33.1,32.0,96,29.77,10.0,West,5.8,-,N/A,,Overcast,280,2013-03-10 08:53:00
5:19 AM,33.8,32.0,93,29.72,6.0,West,8.1,-,N/A,,Overcast,280,2013-03-10 09:19:00
5:37 AM,33.8,32.0,93,29.72,2.5,West,9.2,-,N/A,,Overcast,280,2013-03-10 09:37:00
5:51 AM,33.8,33.8,100,29.73,1.5,West,11.5,-,N/A,,Overcast,280,2013-03-10 09:51:00
5:53 AM,33.1,33.1,100,29.77,1.5,West,11.5,-,N/A,,Overcast,280,2013-03-10 09:53:00
6:12 AM,33.8,33.8,100,29.73,2.0,WNW,12.7,-,N/A,,Overcast,290,2013-03-10 10:12:00
6:19 AM,33.8,33.8,100,29.74,1.0,WNW,12.7,-,N/A,,Overcast,290,2013-03-10 10:19:00
6:27 AM,33.8,33.8,100,29.74,0.5,WNW,11.5,-,N/A,Fog,Fog,290,2013-03-10 10:27:00
6:53 AM,33.1,32.0,96,29.78,0.2,WNW,12.7,-,N/A,Fog,Fog,300,2013-03-10 10:53:00
7:45 AM,32.0,32.0,100,29.77,0.8,WNW,11.5,-,N/A,,Mist,300,2013-03-10 11:45:00
7:49 AM,32.0,32.0,100,29.77,2.0,WNW,11.5,-,N/A,,Overcast,300,2013-03-10 11:49:00
7:53 AM,32.0,32.0,100,29.77,3.0,WNW,10.4,-,N/A,,Overcast,300,2013-03-10 11:53:00
8:53 AM,32.0,30.9,96,29.82,9.0,WNW,13.8,-,N/A,,Overcast,300,2013-03-10 12:53:00
9:41 AM,32.0,30.2,93,29.81,10.0,NW,10.4,-,N/A,,Overcast,310,2013-03-10 13:41:00
9:53 AM,33.1,30.9,92,29.85,10.0,NW,12.7,-,N/A,,Overcast,320,2013-03-10 13:53:00
10:53 AM,33.1,30.0,89,29.86,10.0,NNW,12.7,-,N/A,,Overcast,330,2013-03-10 14:53:00
11:43 AM,33.8,30.2,87,29.88,10.0,NNW,11.5,-,N/A,,Overcast,330,2013-03-10 15:43:00
11:53 AM,33.1,30.0,89,29.93,10.0,NNW,10.4,-,N/A,,Overcast,330,2013-03-10 15:53:00
12:53 PM,33.1,28.0,82,29.92,10.0,North,18.4,23.0,N/A,,Overcast,350,2013-03-10 16:53:00
1:10 PM,33.8,28.4,81,29.89,10.0,North,13.8,-,N/A,,Overcast,350,2013-03-10 17:10:00
1:53 PM,33.1,28.0,82,29.96,10.0,NNW,16.1,20.7,N/A,,Overcast,340,2013-03-10 17:53:00
2:27 PM,33.8,26.6,75,29.93,10.0,NNW,15.0,-,N/A,,Overcast,340,2013-03-10 18:27:00
2:53 PM,32.0,27.0,82,29.96,10.0,NNW,12.7,-,N/A,,Overcast,340,2013-03-10 18:53:00
3:53 PM,32.0,27.0,82,29.97,10.0,North,11.5,-,N/A,,Overcast,360,2013-03-10 19:53:00
4:43 PM,30.2,24.8,80,29.93,10.0,North,13.8,-,N/A,,Overcast,10,2013-03-10 20:43:00
4:53 PM,30.9,25.0,79,29.97,10.0,NNE,15.0,24.2,N/A,,Overcast,20,2013-03-10 20:53:00
5:53 PM,30.9,24.1,76,29.99,10.0,NNE,10.4,-,N/A,,Overcast,20,2013-03-10 21:53:00
6:53 PM,30.0,24.1,79,29.99,10.0,North,15.0,-,N/A,,Overcast,10,2013-03-10 22:53:00
7:53 PM,30.0,23.0,75,29.99,10.0,NNE,12.7,19.6,N/A,,Overcast,30,2013-03-10 23:53:00
8:53 PM,30.0,23.0,75,30.00,10.0,NNE,11.5,21.9,N/A,,Overcast,20,2013-03-11 00:53:00
9:53 PM,30.0,24.1,79,30.00,10.0,NE,15.0,-,N/A,,Overcast,40,2013-03-11 01:53:00
10:53 PM,30.0,25.0,82,29.99,10.0,NE,11.5,-,N/A,,Overcast,40,2013-03-11 02:53:00
11:53 PM,30.0,23.0,75,29.96,10.0,NE,10.4,-,N/A,,Overcast,50,2013-03-11 03:53:00
12:53 AM,30.0,21.9,72,29.94,10.0,NE,12.7,-,N/A,,Overcast,50,2013-03-11 04:53:00